McCook, NE

12:23 PM CST on February 20, 2017 (GMT -0600)
McCook Municipal

Weather History for KMCK - November, 2013

Change the Weather History Date:

Tuesday, November 5, 2013

  Actual Average Record
Temperature  
Mean Temperature 35 °F 43 °F  
Max Temperature 39 °F 58 °F 83 °F (1915)
Min Temperature 30 °F 29 °F 10 °F (1982)
Degree Days  
Heating Degree Days 32    
Moisture  
Dew Point 33 °F    
Average Humidity 91    
Maximum Humidity 96    
Minimum Humidity 82    
Precipitation  
Precipitation 0.48 in 0.04 in 0.48 in (2013)
Month to date precipitation 0.48 0.21  
Year to date precipitation 12.61 21.15  
Sea Level Pressure  
Sea Level Pressure 30.03 in    
Wind  
Wind Speed 12 mph (NNE)    
Max Wind Speed 21 mph    
Max Gust Speed 28 mph    
Visibility 6 miles    
Events Rain , Snow    
T = Trace of Precipitation, MM = Missing Value Source: NWS Daily Summary

Daily Weather History Graph

Daily Weather History Graph

Search for Another Location

Airport or City:

Trip Planner

Search our weather history database for the weather conditions in past years. The results will help you decide how hot, cold, wet, or windy it might be!

Date:

Astronomy

Nov. 05, 2013 Rise Set
Actual Time 7:16 AM CST 5:34 PM CST
Civil Twilight 6:48 AM CST 6:03 PM CST
Nautical Twilight 6:15 AM CST 6:35 PM CST
Astronomical Twilight 5:44 AM CST 7:07 PM CST
Moon 9:33 AM CST (11/5) 7:37 PM CST (11/5)
Length of Visible Light 11h 14m
Length of Day
10h 17m
Waxing Crescent, 7% of the Moon is Illuminated
Nov 5
Waxing Crescent
Nov 9
First Quarter
Nov 17
Full
Nov 25
Last Quarter
Dec 2
New

Hourly Weather History & Observations

Time (CST) Temp. Windchill Dew Point Humidity Pressure Visibility Wind Dir Wind Speed Gust Speed Precip Events Conditions
12:53 AM 30.0 °F 23.2 °F 25.0 °F 82% 30.10 in 10.0 mi ENE 6.9 mph - N/A   Clear
1:53 AM 30.9 °F 23.5 °F 26.1 °F 82% 30.08 in 10.0 mi ENE 8.1 mph - N/A   Clear
2:53 AM 33.1 °F 26.1 °F 28.0 °F 82% 30.06 in 10.0 mi ENE 8.1 mph - N/A   Overcast
3:53 AM 34.0 °F 26.6 °F 28.9 °F 82% 30.02 in 10.0 mi ENE 9.2 mph - N/A   Overcast
4:53 AM 35.1 °F 30.1 °F 30.0 °F 82% 30.04 in 10.0 mi ENE 5.8 mph - 0.00 in   Overcast
5:53 AM 36.0 °F 29.6 °F 33.1 °F 89% 30.02 in 7.0 mi ENE 8.1 mph - 0.01 in Rain Light Rain
6:31 AM 37.4 °F 30.8 °F 35.6 °F 93% 29.98 in 8.0 mi ENE 9.2 mph - 0.00 in   Overcast
6:53 AM 37.9 °F 30.5 °F 36.0 °F 93% 30.02 in 5.0 mi NE 11.5 mph - 0.00 in Rain Light Rain
7:17 AM 37.4 °F 29.3 °F 35.6 °F 93% 29.97 in 2.5 mi NE 12.7 mph - 0.04 in Rain Light Rain
7:34 AM 37.4 °F 28.9 °F 35.6 °F 93% 29.96 in 3.0 mi NE 13.8 mph - 0.06 in Rain Light Rain
7:44 AM 37.4 °F 29.3 °F 35.6 °F 93% 29.96 in 2.5 mi NE 12.7 mph - 0.09 in Rain Heavy Rain
7:53 AM 37.9 °F 28.9 °F 36.0 °F 93% 30.00 in 3.0 mi ENE 16.1 mph - 0.10 in Rain Light Rain
7:56 AM 37.4 °F 28.5 °F 35.6 °F 93% 29.95 in 2.5 mi ENE 15.0 mph - 0.00 in Rain Light Rain
8:08 AM 37.4 °F 28.2 °F 35.6 °F 93% 29.95 in 1.8 mi ENE 16.1 mph - 0.02 in Rain Rain
8:12 AM 37.4 °F 28.2 °F 35.6 °F 93% 29.95 in 2.0 mi ENE 16.1 mph - 0.02 in Rain Light Rain
8:19 AM 37.4 °F 28.2 °F 35.6 °F 93% 29.94 in 2.0 mi ENE 16.1 mph - 0.03 in Rain Rain
8:43 AM 37.4 °F 28.5 °F 35.6 °F 93% 29.94 in 2.0 mi ENE 15.0 mph - 0.06 in Rain Light Rain
8:53 AM 37.9 °F 28.5 °F 36.0 °F 93% 29.99 in 2.0 mi ENE 17.3 mph - 0.06 in Rain Light Rain
9:11 AM 37.4 °F 28.9 °F 35.6 °F 93% 29.96 in 1.5 mi ENE 13.8 mph - 0.03 in Rain Rain
9:53 AM 37.0 °F 28.1 °F 36.0 °F 96% 30.01 in 1.8 mi NE 15.0 mph - 0.16 in Rain Rain
10:01 AM 37.4 °F 28.9 °F 35.6 °F 93% 29.95 in 2.0 mi NE 13.8 mph - 0.03 in Rain Rain
10:24 AM 37.4 °F 28.9 °F 35.6 °F 93% 29.96 in 4.0 mi NE 13.8 mph - 0.08 in Rain Light Rain
10:53 AM 37.9 °F 28.5 °F 36.0 °F 93% 29.99 in 6.0 mi NE 17.3 mph - 0.10 in Rain Light Rain
11:53 AM 37.9 °F 29.6 °F 36.0 °F 93% 29.99 in 9.0 mi NE 13.8 mph - 0.01 in   Overcast
12:53 PM 37.0 °F 28.1 °F 35.1 °F 93% 30.03 in 7.0 mi NNW 15.0 mph - 0.01 in Rain Light Rain
1:09 PM 37.4 °F 29.3 °F 35.6 °F 93% 29.96 in 4.0 mi NNW 12.7 mph - 0.01 in Rain Light Rain
1:25 PM 37.4 °F 27.8 °F 35.6 °F 93% 29.97 in 3.0 mi NW 17.3 mph - 0.01 in   Overcast
1:33 PM 35.6 °F 25.5 °F 33.8 °F 93% 29.97 in 2.5 mi NNW 17.3 mph - 0.01 in   Overcast
1:53 PM 36.0 °F 26.0 °F 34.0 °F 93% 30.02 in 1.8 mi NNW 17.3 mph - 0.02 in   Overcast
2:08 PM 35.6 °F 24.5 °F 33.8 °F 93% 29.97 in 2.0 mi NNW 20.7 mph - 0.00 in Snow Light Snow
2:20 PM 35.6 °F 24.5 °F 33.8 °F 93% 29.98 in 3.0 mi NNW 20.7 mph - 0.00 in Snow Light Snow
2:53 PM 35.1 °F 23.8 °F 33.1 °F 92% 30.04 in 10.0 mi North 20.7 mph 27.6 mph 0.01 in   Overcast
3:53 PM 35.1 °F 24.5 °F 33.1 °F 92% 30.08 in 10.0 mi North 18.4 mph - 0.00 in   Overcast
4:53 PM 36.0 °F 26.0 °F 32.0 °F 86% 30.10 in 10.0 mi North 17.3 mph 24.2 mph 0.00 in   Overcast
5:53 PM 35.1 °F 25.5 °F 32.0 °F 89% 30.15 in 10.0 mi NNW 15.0 mph - N/A   Overcast
6:53 PM 35.1 °F 25.5 °F 30.9 °F 85% 30.17 in 10.0 mi NNW 15.0 mph - N/A   Overcast
7:53 PM 34.0 °F 25.5 °F 30.9 °F 89% 30.19 in 10.0 mi NNW 11.5 mph - N/A   Overcast
8:53 PM 34.0 °F 25.5 °F 30.9 °F 89% 30.20 in 10.0 mi NW 11.5 mph - N/A   Overcast
9:53 PM 32.0 °F 22.5 °F 30.0 °F 92% 30.21 in 10.0 mi NW 12.7 mph - N/A   Partly Cloudy
10:53 PM 30.9 °F 25.2 °F 28.9 °F 92% 30.22 in 10.0 mi WNW 5.8 mph - N/A   Scattered Clouds
11:53 PM 30.0 °F 22.4 °F 28.0 °F 92% 30.21 in 10.0 mi WNW 8.1 mph - N/A   Clear